VIR200 EGLL-VHHX

Flight info

Callsign VIR200
Flight time N/A
Altitude 33000
Route DET L6 DVR UL9 KONAN DCT KOK DCT REMBA DCT MATUG DCT BOMBI DCT DETEV DCT DINKU/N0471F350 DCT AKIMA DCT TEGRI DCT LUGEB DCT UDROS DCT CRM DCT ROLIN N644 ODILI DCT BARAD M747 SUBUT T916 KONUL/N0468F370 T916 BALUN/K0863F370 T916 KUNAS N193 SR L163 TISIB L141 KAMUD/K0854S1130 W186 SADAN Y1 LUSMA/K0852S1190 Y1 OMBON W245 OVRAL B330 KWE W181 DUDIT A599 POU
Aircraft A346/H-SDE2E3FGHIJ3J4J5M1RWXY/LB1D1

Departure

Time 2026-05-05 23:29
Airport London Heathrow Airport (EGLL)

Arrival

Time N/A
Airport Hong Kong International Airport Kai Tak (VHHX)
Time Latitude Longitude Altitude Speed Heading
2026-05-05 22:58 51.46903 -0.46418 96 ft 0 kts 55°
2026-05-05 23:18 51.46902 -0.46419 94 ft 1 kts 55°
2026-05-05 23:18 51.46888 -0.46451 97 ft 4 kts 56°
2026-05-05 23:19 51.46875 -0.46484 95 ft 4 kts 68°
2026-05-05 23:19 51.46872 -0.46513 95 ft 4 kts 105°
2026-05-05 23:19 51.46882 -0.46540 95 ft 4 kts 139°
2026-05-05 23:19 51.46899 -0.46560 94 ft 4 kts 146°
2026-05-05 23:20 51.46920 -0.46583 97 ft 2 kts 146°
2026-05-05 23:20 51.46922 -0.46584 97 ft 0 kts 146°
2026-05-05 23:22 51.46921 -0.46584 97 ft 1 kts 146°
2026-05-05 23:22 51.46889 -0.46549 94 ft 8 kts 146°
2026-05-05 23:22 51.46840 -0.46494 95 ft 9 kts 146°
2026-05-05 23:23 51.46787 -0.46439 96 ft 9 kts 154°
2026-05-05 23:23 51.46725 -0.46420 97 ft 8 kts 180°
2026-05-05 23:23 51.46672 -0.46448 98 ft 8 kts 238°
2026-05-05 23:23 51.46659 -0.46553 98 ft 11 kts 267°
2026-05-05 23:24 51.46658 -0.46683 98 ft 12 kts 269°
2026-05-05 23:24 51.46657 -0.46830 97 ft 14 kts 269°
2026-05-05 23:24 51.46657 -0.46989 97 ft 15 kts 270°
2026-05-05 23:24 51.46656 -0.47158 97 ft 15 kts 270°
2026-05-05 23:25 51.46656 -0.47334 97 ft 16 kts 270°
2026-05-05 23:25 51.46655 -0.47515 97 ft 16 kts 270°
2026-05-05 23:25 51.46655 -0.47687 96 ft 14 kts 269°
2026-05-05 23:25 51.46654 -0.47815 94 ft 12 kts 269°
2026-05-05 23:26 51.46654 -0.47950 94 ft 11 kts 270°
2026-05-05 23:26 51.46653 -0.48060 94 ft 10 kts 270°
2026-05-05 23:26 51.46653 -0.48180 95 ft 11 kts 270°
2026-05-05 23:26 51.46653 -0.48316 95 ft 13 kts 270°
2026-05-05 23:27 51.46652 -0.48465 94 ft 14 kts 270°
2026-05-05 23:27 51.46652 -0.48577 94 ft 10 kts 270°
2026-05-05 23:27 51.46647 -0.48694 95 ft 10 kts 251°
2026-05-05 23:27 51.46602 -0.48764 97 ft 10 kts 206°
2026-05-05 23:28 51.46531 -0.48779 97 ft 10 kts 168°
2026-05-05 23:28 51.46488 -0.48722 98 ft 9 kts 117°
2026-05-05 23:28 51.46479 -0.48573 94 ft 26 kts 90°
2026-05-05 23:28 51.46481 -0.47922 95 ft 89 kts 90°
2026-05-05 23:29 51.46485 -0.46615 100 ft 144 kts 89°
2026-05-05 23:29 51.46490 -0.44746 114 ft 187 kts 88°
2026-05-05 23:29 51.46479 -0.42608 692 ft 190 kts 90°
2026-05-05 23:29 51.46130 -0.40554 1387 ft 198 kts 121°
2026-05-05 23:30 51.45313 -0.38761 2056 ft 199 kts 117°
2026-05-05 23:30 51.44897 -0.37406 2294 ft 204 kts 109°
2026-05-05 23:30 51.44350 -0.35223 2585 ft 219 kts 108°
2026-05-05 23:30 51.43795 -0.32850 2868 ft 234 kts 107°
2026-05-05 23:31 51.43225 -0.30311 3225 ft 248 kts 107°
2026-05-05 23:31 51.42650 -0.27655 3707 ft 255 kts 103°
2026-05-05 23:31 51.42230 -0.24879 4326 ft 257 kts 99°
2026-05-05 23:31 51.41874 -0.22053 4935 ft 260 kts 99°
2026-05-05 23:32 51.41509 -0.19182 5519 ft 264 kts 99°
2026-05-05 23:32 51.41128 -0.16270 6105 ft 268 kts 100°
2026-05-05 23:32 51.40726 -0.13300 6543 ft 279 kts 101°
2026-05-05 23:32 51.40297 -0.10175 6830 ft 295 kts 100°
2026-05-05 23:33 51.39845 -0.06880 7139 ft 311 kts 101°
2026-05-05 23:33 51.39367 -0.03415 7433 ft 327 kts 101°
2026-05-05 23:33 51.38860 0.00215 7727 ft 342 kts 101°
2026-05-05 23:33 51.38336 0.03949 8208 ft 350 kts 101°
2026-05-05 23:34 51.37793 0.07831 8884 ft 353 kts 101°
2026-05-05 23:34 51.37253 0.11689 9535 ft 357 kts 101°
2026-05-05 23:34 51.36712 0.15548 10136 ft 361 kts 101°
2026-05-05 23:34 51.36158 0.19489 10697 ft 365 kts 101°
2026-05-05 23:35 51.35597 0.23483 11268 ft 369 kts 101°
2026-05-05 23:35 51.35028 0.27510 11846 ft 372 kts 101°
2026-05-05 23:35 51.34451 0.31581 12418 ft 376 kts 101°
2026-05-05 23:35 51.33867 0.35685 12982 ft 380 kts 101°
2026-05-05 23:36 51.33274 0.39835 13581 ft 383 kts 102°
2026-05-05 23:36 51.32676 0.43999 14293 ft 384 kts 102°
2026-05-05 23:36 51.32076 0.48179 14859 ft 386 kts 102°
2026-05-05 23:36 51.31470 0.52382 15417 ft 388 kts 102°
2026-05-05 23:37 51.30862 0.56601 15971 ft 390 kts 102°
2026-05-05 23:37 51.30208 0.60825 16503 ft 393 kts 104°
2026-05-05 23:37 51.29454 0.65044 17019 ft 395 kts 105°
2026-05-05 23:37 51.28683 0.69276 17534 ft 398 kts 105°
2026-05-05 23:38 51.27901 0.73541 18038 ft 400 kts 105°
2026-05-05 23:38 51.27113 0.77822 18505 ft 403 kts 105°
2026-05-05 23:38 51.26318 0.82146 18943 ft 406 kts 105°
2026-05-05 23:38 51.25520 0.86484 19350 ft 409 kts 105°
2026-05-05 23:39 51.24708 0.90867 19761 ft 411 kts 105°
2026-05-05 23:39 51.23896 0.95256 20150 ft 414 kts 105°
2026-05-05 23:39 51.23074 0.99702 20592 ft 417 kts 106°
2026-05-05 23:39 51.22260 1.04080 21040 ft 418 kts 106°
2026-05-05 23:40 51.21424 1.08548 21451 ft 420 kts 106°
2026-05-05 23:40 51.20584 1.13039 21869 ft 423 kts 106°
2026-05-05 23:40 51.19744 1.17514 22271 ft 425 kts 106°
2026-05-05 23:40 51.18893 1.22037 22704 ft 428 kts 106°
2026-05-05 23:41 51.18038 1.26570 23123 ft 430 kts 106°
2026-05-05 23:41 51.17196 1.31164 23519 ft 433 kts 104°
2026-05-05 23:41 51.16527 1.35861 23851 ft 435 kts 100°
2026-05-05 23:41 51.16071 1.40639 24185 ft 437 kts 96°
2026-05-05 23:42 51.15802 1.45479 24506 ft 439 kts 95°
2026-05-05 23:42 51.15572 1.50350 24787 ft 442 kts 95°
2026-05-05 23:42 51.15343 1.55256 25097 ft 444 kts 95°
2026-05-05 23:42 51.15107 1.60177 25442 ft 446 kts 95°
2026-05-05 23:43 51.14868 1.65120 25787 ft 448 kts 95°
2026-05-05 23:43 51.14624 1.70071 26124 ft 449 kts 95°
2026-05-05 23:43 51.14374 1.75049 26448 ft 451 kts 95°
2026-05-05 23:43 51.14123 1.80037 26783 ft 453 kts 95°
2026-05-05 23:44 51.13866 1.85047 27095 ft 455 kts 95°
2026-05-05 23:44 51.13602 1.90164 27412 ft 456 kts 96°
2026-05-05 23:44 51.13345 1.95221 27753 ft 458 kts 97°
2026-05-05 23:44 51.13078 2.00262 28070 ft 459 kts 97°
2026-05-05 23:45 51.12821 2.05355 28390 ft 461 kts 97°
2026-05-05 23:45 51.12565 2.10469 28707 ft 462 kts 96°
2026-05-05 23:45 51.12307 2.15588 29001 ft 464 kts 96°
2026-05-05 23:45 51.12051 2.20721 29305 ft 465 kts 96°
2026-05-05 23:46 51.11786 2.25872 29607 ft 467 kts 96°
2026-05-05 23:46 51.11522 2.31030 29873 ft 469 kts 97°
2026-05-05 23:46 51.11254 2.36215 30139 ft 470 kts 97°
2026-05-05 23:46 51.10979 2.41430 30381 ft 471 kts 97°
2026-05-05 23:47 51.10704 2.46644 30628 ft 472 kts 97°
2026-05-05 23:47 51.10423 2.51863 30865 ft 474 kts 97°
2026-05-05 23:47 51.10139 2.57099 31103 ft 474 kts 97°
2026-05-05 23:47 51.09741 2.62208 31704 ft 465 kts 101°
2026-05-05 23:48 51.09171 2.67273 32472 ft 453 kts 104°
2026-05-05 23:48 51.08465 2.72063 32975 ft 448 kts 107°
2026-05-05 23:48 51.07618 2.76829 33259 ft 447 kts 108°
2026-05-05 23:48 51.06746 2.81594 33438 ft 449 kts 108°
2026-05-05 23:49 51.05867 2.86382 33610 ft 451 kts 108°
2026-05-05 23:49 51.04985 2.91177 33852 ft 451 kts 108°
2026-05-05 23:49 51.04105 2.95960 34074 ft 451 kts 108°
2026-05-05 23:49 51.03222 3.00750 34223 ft 452 kts 108°
2026-05-05 23:50 51.02333 3.05561 34337 ft 454 kts 108°
2026-05-05 23:50 51.01440 3.10383 34460 ft 455 kts 108°
2026-05-05 23:50 51.00541 3.15222 34585 ft 457 kts 108°
2026-05-05 23:50 50.99638 3.20077 34733 ft 458 kts 108°
2026-05-05 23:51 50.98731 3.24940 34845 ft 459 kts 108°
2026-05-05 23:51 50.97818 3.29819 34893 ft 461 kts 108°